Weather in Tatarka

Russia / Smolensk Oblast     55°38′47″N   34°37′35″E
temp.,
°C
wind,
m/s
gust,
m/s
humid.,
%
clouds,
%
prec.,
mm/h
press.,
hPa
HPBL,
m
29 june, wed
wed2900:00+14ene386464 0.0 1023182
03:00+12e357423 0.0 102385
06:00+13e257769 0.0 1023130
09:00+18ese345793 0.0 1022580
12:00+22ese3344100 0.0 10221357
15:00+23se2238100 0.0 10211656
18:00+23ese12460 0.0 10201340
21:00+16e33680 0.0 102029
30 june, thu
thu3000:00+12ese22700 0.0 102013
03:00+11e22793 0.0 102119
06:00+13ene11765 0.0 102147
09:00+19nne12530 0.0 1021481
12:00+23nne34392 0.0 10201702
15:00+24nne343698 0.0 10191957
18:00+23n244846 0.0 10191230
21:00+17nne116633 0.0 101911
1 july, fri
fri100:00+14nne22690 0.0 102016
03:00+13nnw22742 0.0 102113
06:00+14nnw24750 0.0 1021101
09:00+21n24570 0.0 1021474
12:00+25n464727 0.0 10212109
15:00+26nne464187 0.0 10202364
18:00+25ne35515 0.0 1020993
21:00+18e34725 0.0 102153
2 july, sat
sat200:00+14se22663 0.0 102111
03:00+13ssw11735 0.0 102111
06:00+15wnw12745 0.0 102253
09:00+22wnw24605 0.0 1020421
12:00+27nw35495 0.0 10191238
15:00+27nw4655100 0.0 1018685
18:00+25nw5105485 0.0 1017439
21:00+21wnw356917 0.0 101781
3 july, sun
sun300:00+19nnw397612 0.0 1017146
03:00+16nnw237849 0.0 101734
06:00+17nw258197 0.0 1017123
09:00+23nnw3562100 0.0 1017430
12:00+27nw345280 0.0 10161090
15:00+28wnw445189 0.0 10151286
18:00+25nne356449 0.2 1014443
21:00+17ese369197 3.7 101689